Regional Weather Roundup
Issued by NWS Boston, MA

Current Version | Previous Version | Text Only | Print | Product List | Glossary Off
Versions: 1 2 3 4 5 6 7 8 9 10 11 12 13 14 15 16 17 18 19 20 21 22 23 24 25 26 27 28 29 30 31 32 33 34 35 36 37 38 39 40 41 42 43 44 45 46 47 48 49 50
746 ASUS41 KBOX 172010 RWRBOX REGIONAL WEATHER ROUNDUP NATIONAL WEATHER SERVICE TAUNTON MA 400 PM EDT THU AUG 17 2017 NOTE: "FAIR" INDICATES FEW OR NO CLOUDS BELOW 12,000 FEET WITH NO SIGNIFICANT WEATHER AND/OR OBSTRUCTIONS TO VISIBILITY. MAZALL-172100- EASTERN MASSACHUSETTS CITY SKY/WX TMP DP RH WIND PRES REMARKS BOSTON PTSUNNY 81 48 31 W10 29.97F BEVERLY MOSUNNY 81 53 37 NW13G18 29.96F LAWRENCE MOSUNNY 82 52 35 MISG 29.98F BEDFORD MOSUNNY 80 47 31 SW7 29.96F BLUE HILL N/A 80 48 32 SW9 29.99F NORWOOD MOSUNNY 81 51 35 SW8 29.97F MARSHFIELD SUNNY 77 54 44 SE8 29.98F PLYMOUTH SUNNY 79 46 31 SW9 29.99F TAUNTON MOSUNNY 81 49 32 CALM 29.98F NEW BEDFORD SUNNY 80 53 39 S12 29.98F $$ MAZALL-172100- CAPE COD AND THE ISLANDS CITY SKY/WX TMP DP RH WIND PRES REMARKS FALMOUTH SUNNY 75 55 50 S15 30.01S HYANNIS SUNNY 74 58 57 S12 29.99F CHATHAM SUNNY 75 60 59 SW7 30.02F PROVINCETOWN SUNNY 76 52 43 S8 30.00F NANTUCKET SUNNY 70 59 68 S8 30.02F MARTHAS VNYRD SUNNY 74 59 59 S9 30.02S $$ MAZALL-172100- CENTRAL AND WESTERN MASSACHUSETTS CITY SKY/WX TMP DP RH WIND PRES REMARKS WORCESTER MOSUNNY 76 44 32 W6 30.02F FITCHBURG MOSUNNY 82 49 31 SW8 29.99F ORANGE SUNNY 78 47 33 VRB5 30.00F SPRINGFIELD PTSUNNY 81 50 33 S6 29.97F WESTFIELD SUNNY 80 55 42 S7 29.98F NORTH ADAMS SUNNY 78 53 41 CALM 29.99F PITTSFIELD SUNNY 76 50 40 VRB6 30.00F $$ RIZALL-172100- RHODE ISLAND CITY SKY/WX TMP DP RH WIND PRES REMARKS PROVIDENCE MOSUNNY 80 53 39 S14 30.00F NEWPORT SUNNY 75 47 36 S10 30.01F BLOCK ISLAND SUNNY 75 51 43 S10 30.02F WESTERLY SUNNY 76 51 41 S10 30.02F $$ CTZALL-172100- CONNECTICUT CITY SKY/WX TMP DP RH WIND PRES REMARKS BRADLEY INTL MOSUNNY 81 52 36 S5 29.99F HARTFORD MOSUNNY 82 55 39 S6 29.98F BRIDGEPORT SUNNY 77 55 46 S6 30.00F DANBURY SUNNY 81 61 50 SW5 30.00F GROTON SUNNY 75 57 53 S9 30.00F NEW HAVEN SUNNY 79 55 43 S7 30.00F CHESTER NOT AVBL MERIDEN MOSUNNY 79 57 46 S8 29.99F WILLIMANTIC SUNNY 80 49 33 W7 29.99F OXFORD MOSUNNY 79 61 53 S6 30.02F $$ MEZ002-015-021-024-NHZ003-005-008-011-012-014-VTZ005-008-172100- NORTHERN NEW ENGLAND CITY SKY/WX TMP DP RH WIND PRES REMARKS PORTLAND ME MOSUNNY 82 48 30 W13 29.93F BANGOR ME MOSUNNY 79 44 28 NW15G22 29.90S CONCORD NH SUNNY 82 52 35 NW9G18 29.97F MANCHESTER NH PTSUNNY 81 48 31 VRB7 29.96F NASHUA NH SUNNY 80 51 36 W7 29.98F PORTSMOUTH NH PTSUNNY 81 52 36 W9 29.95S JAFFREY NH SUNNY 79 48 33 W12 30.02F KEENE NH N/A N/A N/A N/A MISG N/A BURLINGTON VT PTSUNNY 79 53 40 N6 29.98F MT. WASHINGTON FOG 45 45 100 NW37G45 N/A VSB 1/16 $$ NYZ052-076-172100- EASTERN NEW YORK CITY SKY/WX TMP DP RH WIND PRES REMARKS ALBANY PTSUNNY 80 48 32 CALM 29.99F NEW YORK CITY MOSUNNY 80 61 52 S10G17 29.99F $$ ANZALL-172100- MARINE OBSERVATIONS STATION/POSITION TIME TEMP WIND PRES VSBY WAVE AIR SEA DIR/SP/G HT/PER (UTC) (F) (DEG/KT/KT) (MB) (MI) (FT/S) BOSTON BUOY 1950 70 69 140/ 8/ 10 1014.8F 1/11 BUZZARDS BAY 1900 69 200/ 9/ 10 1016.9F NANTUCKET SOUND 1950 70 72 210/ 10/ 12 1016.3F 1 MASS BAY-STELLWA 1904 71 68 200/ 10/ 12 1014.7F 2/ 9 ISLE OF SHOALS 1900 76 260/ 11/ 12 1014.4F S OF BLOCK IS NOT AVBL $$ ......................KEY......................... SKY/WX - SKY CONDITION/PRESENT WEATHER TMP - TEMPERATURE IN FAHRENHEIT DWPT - DEWPOINT IN FAHRENHEIT RH - RELATIVE HUMIDITY IN PERCENT WIND - DIRECTION AND SPEED IN MPH PRES - MEAN SEA LEVEL PRESSURE IN INCHES OF HG WCI - WIND CHILL INDEX VSB - VISIBILITY IN MILES HX - HEAT INDEX TC - TEMPERATURE IN CELSIUS VRB - VARIABLE WIND DIRECTION N/A - NOT AVAILABLE

USA.gov is the U.S. government's official web portal to all federal, state and local government web resources and services.